Flag for Germany Weather past 2 weeks in Schwäbisch Gmünd, Baden-Württemberg, Germany

Now
58 °F

Fog.


Feels Like: 58 °F
Forecast: 41 / 55 °F
Wind: 6 mph from West

Location: Stoetten

Current Time: Sep 21, 2014 at 2:47:58 PM

Latest Report: Sep 21, 2014 at 2:00 PM


Visibility: 1 mi

Pressure: 29.95 "Hg

Humidity: 99%

Dew point: 58 °F

Location of Schwäbisch GmündLocation

Historic Weather in Schwäbisch Gmünd — Graph

°F

Schwäbisch Gmünd temperature yesterday

Maximum temperature yesterday: 66 °F (at 2:00 PM)
Minimum temperature yesterday: 58 °F (at 9:00 AM)
Average temperature yesterday: 61 °F

Past Weeks' High & Low Weather Summary

 TemperatureHumidityPressure
High71 °F (Sep 7, 3:00 PM)100% (Sep 11, 9:00 AM)30.16 "Hg (Sep 11, 9:00 AM)
Low47 °F (Sep 11, 7:00 AM)51% (Sep 7, 3:00 PM)29.84 "Hg (Sep 18, 4:00 PM)
Average58 °F88%29.99 "Hg
* Reported Sep 6 2:00 PM — Sep 21 2:00 PM, Schwäbisch Gmünd, Weather by CustomWeather, © 2014

Note: Actual official high and low records may vary slightly from our data, if they occured in-between our weather recording intervals... More about our weather records

Advertising

Schwäbisch Gmünd weather history for previous 24 hours

 ConditionsComfort  
Time TempWeatherWind HumidityBarometerVisibility
2:00 PM
Sep 21
58 °FFog.6 mph99%29.95 "Hg1 mi
1:00 PM56 °FLight rain. Low clouds.9 mph99%29.97 "Hg1 mi
12:00 PM56 °FRain. Dense fog.8 mph100%29.97 "Hg1 mi
11:00 AM57 °FLow clouds.8 mph98%29.97 "Hg1 mi
10:00 AM57 °FLight rain. Overcast.5 mph96%29.98 "Hg5 mi
9:00 AM57 °FLight rain. Overcast.6 mph96%29.97 "Hg14 mi
8:00 AM56 °FOvercast.5 mph94%29.97 "Hg11 mi
7:00 AM55 °FFog.3 mph99%29.98 "Hg2 mi
6:00 AM55 °FFog.2 mph100%29.99 "Hg0 mi
5:00 AM55 °FLow clouds.6 mph99%30.00 "Hg0 mi
4:00 AM57 °FClear.3 mph94%29.98 "Hg12 mi
3:00 AM59 °FPassing clouds.3 mph90%29.99 "Hg19 mi
2:00 AM59 °FClear.3 mph88%29.99 "Hg22 mi
1:00 AM59 °FClear.3 mph90%30.00 "Hg19 mi
12:00 AM59 °FClear.3 mph90%30.01 "Hg14 mi
11:00 PM
Sep 20
59 °FClear.2 mph90%30.01 "Hg22 mi
10:00 PM60 °FClear.2 mph90%30.00 "Hg19 mi
9:00 PM60 °FPassing clouds.2 mph86%30.00 "Hg47 mi
8:00 PM60 °FPassing clouds.2 mph85%29.99 "Hg47 mi
3:00 PM65 °FPartly sunny.6 mph73%29.96 "Hg47 mi
2:00 PM66 °FScattered clouds.6 mph71%29.96 "Hg47 mi
Weather by CustomWeather, © 2014

See weather overviewHow to use our weather pages